Regional Weather Roundup
Issued by NWS Sterling, VA

Home | Current Version | Previous Version | Text Only | Print | Product List | Glossary Off
Versions: 1 2 3 4 5 6 7 8 9 10 11 12 13 14 15 16 17 18 19 20 21 22 23 24 25 26 27 28 29 30 31 32 33 34 35 36 37 38 39 40 41 42 43 44 45 46 47 48 49 50

000
ASUS41 KLWX 010310
RWRLWX

REGIONAL WEATHER ROUNDUP
NATIONAL WEATHER SERVICE BALTIMORE MD/WASHINGTON DC
1100 PM EDT MON AUG 31 2015

Note: "FAIR" indicates few or no clouds below 12,000 feet
with no significant weather and/or obstructions to visibility.
 TC=TEMPERATURE CELSIUS

 * =Non NWS site. Station does not report precipitation (e.g. rain,
    snow, etc.), thunder, or fog.

DCZ001-MDZ009-015-VAZ040>042-051-053>054-010400-
WASHINGTON METRO

CITY           SKY/WX    TMP DP  RH WIND       PRES   REMARKS
WASHINGTON NAT PTCLDY    77  70  79 S10       30.07R
DULLES         PTCLDY    73  66  78 S3        30.07R
ANDREWS AFB    CLEAR     75  69  81 S9        30.06S
FT BELVOIR     CLEAR     72  69  88 SE2       30.07R
QUANTICO       CLEAR     77  69  76 SW7       30.08R
COLLEGE PARK*  CLEAR     79  68  69 CALM      30.06R
LEESBURG*      CLEAR     75  70  83 SW6       30.08R
MANASSAS*      CLEAR     70  68  94 CALM      30.07S
GAITHERSBURG*  CLEAR     75  63  64 CALM      30.11R

$$

MDZ006>007-011-014-010400-
BALTIMORE METRO

CITY           SKY/WX    TMP DP  RH WIND       PRES   REMARKS
BWI AIRPORT    PTCLDY    76  64  66 SW6       30.05R
MD SCIENCE CTR   N/A     79  64  60 MISG      30.06R
ANNAPOLIS      CLEAR     77  69  76 VRB5      30.05R
FORT MEADE*    CLEAR     68  64  88 CALM      30.08S

$$

MDZ012-015-019>023-010400-
MARYLAND EASTERN SHORE

CITY           SKY/WX    TMP DP  RH WIND       PRES   REMARKS
OCEAN CITY     CLEAR     75  67  76 W9        30.07S
SALISBURY      CLEAR     70  67  90 SW7       30.07S
BAY BRIDGE AP*   N/A     77  70  78 SW9       30.06R
CAMBRIDGE*     CLEAR     77  70  78 SW3       30.07R

$$

MDZ017>025-010400-
SOUTHERN MARYLAND

CITY           SKY/WX    TMP DP  RH WIND       PRES   REMARKS
PATUXENT RIVER CLEAR     74  68  81 SW8       30.07S
ST INIGOES     CLEAR     75  69  81 SW8       30.07R
LEONARDTOWN*   NOT AVBL

$$

MDZ003>005-010400-
NORTH CENTRAL MARYLAND

CITY           SKY/WX    TMP DP  RH WIND       PRES   REMARKS
FREDERICK*     CLEAR     72  70  94 SE3       30.09R
HAGERSTOWN APT CLEAR     77  67  71 SE3       30.07R
WESTMINSTER*   CLEAR     75  66  73 CALM      30.08S

$$

MDZ501>502-010400-
WESTERN MARYLAND

CITY           SKY/WX    TMP DP  RH WIND       PRES   REMARKS
OAKLAND*       PTCLDY    66  59  77 SW5       30.21R
CUMBERLAND*    PTCLDY    73  70  88 N5        30.12S

$$

VAZ025>031-010400-
SHENANDOAH VALLEY

CITY           SKY/WX    TMP DP  RH WIND       PRES   REMARKS
WINCHESTER*    CLEAR     70  63  78 CALM      30.08S
FRONT ROYAL*   FAIR      72  64  78 CALM      30.07S
LURAY*         FAIR      70  61  73 CALM      30.10S
NEW MARKET*    FAIR      68  64  86 CALM      30.09R
STAUNTON*      CLEAR     70  64  81 CALM      30.14R
WAYNESBORO*    FAIR      71  64  77 SW3       30.13F

$$

WVZ021-048>050-054>055-010400-
EASTERN WEST VIRGINIA PANHANDLE

CITY           SKY/WX    TMP DP  RH WIND       PRES   REMARKS
MARTINSBURG    CLEAR     71  65  81 CALM      30.07R
PETERSBURG*    PTCLDY    69  68  97 CALM      30.11S FOG

$$

VAZ036>039-050-010400-
CENTRAL FOOTHILLS

CITY           SKY/WX    TMP DP  RH WIND       PRES   REMARKS
CHARLOTTESVILL CLEAR     73  66  78 SW3       30.10R
CULPEPER*      CLEAR     71  67  87 CALM      30.09R
ORANGE*        CLEAR     72  68  88 CALM      30.11R
GORDONSVILLE*  FAIR      69  67  94 CALM      30.09S
WARRENTON*     FAIR      73  69  88 SW3       30.07S

$$

VAZ055>057-010400-
NORTH AND CENTRAL PIEDMONT

CITY           SKY/WX    TMP DP  RH WIND       PRES   REMARKS
FREDERICKSBRG* CLEAR     76  71  85 CALM      30.07S
STAFFORD*      CLEAR     72  68  86 S3        30.12R

$$

NCZ024-NYZ072-PAZ021-071-VAZ022-071-010400-
OTHER REGIONAL OBSERVATIONS

CITY           SKY/WX    TMP DP  RH WIND       PRES   REMARKS
NEW YORK CITY  PTCLDY    84  64  50 W7        30.01S
PHILADELPHIA   CLEAR     79  67  66 SW10      30.04R
PITTSBURGH     PTCLDY    76  65  68 NW6       30.10R
ROANOKE        PTCLDY    74  64  71 NE5       30.14S
RICHMOND       FAIR      71  68  90 S6        30.09S
RALEIGH        PTCLDY    72  70  94 CALM      30.10R

$$

ANZ530>537-010400-
MARINE OBSERVATIONS

STATION/POSITION TIME  TEMP    WIND        PRES
                       AIR SEA DIR/SP/G
                 (UTC) (F)     (DEG/KT/KT) (MB)
THOMAS PT LIGHT  NOT AVBL
BALT KEY BRIDGE  0200   78     200/  6/  7 1017.2R
COVE POINT       0200   76     240/ 13/ 17 1018.8R
LEWISETTA        0200   75 80  240/  7/  9 1018.0R
SOLOMONS ISLAND  0200      80                N/A
PINEY POINT      0205          240/  9/ 12   N/A

$$




USA.gov is the U.S. government's official web portal to all federal, state and local government web resources and services.